Yaogan 36 01 zu 01 xing

operational
NORAD ID: 53943 Int'l Des: 2022-120 Owner: ZZB Country: CN Constellation: yaogan
LEOCIRCULAR

Über Yaogan 36 01 zu 01 xing

Beschreibung wird geladen...

Live-Position

3D-Globus wird geladen...

Nächste Überflüge

Höhenverlauf

Altitude vs Time

uPlot chart will show altitude changes over time

Zweizeiliger Elementsatz

1 53943U 22120A 26062.66212920 .00011398 00000-0 48845-3 0 9999
2 53943 34.9904 228.3884 0004786 120.4373 239.6814 15.21972758191219
Epoch: 3. März 2026 • Age: 25 hours

Aktueller Status

Höhe 508.9 km
Geschwindigkeit 7.61 km/s
Subsatellitenpunkt -30.84°S, 70.1°W
Startdatum 26. Sept. 2022
Alter 3.4 years
Typ military

Technische Details

Klassifizierung Payload
Masse 300.00 kg
Trockenmasse 300.00 kg
Gesamtmasse 300.00 kg
Länge 2.50 m
Durchmesser 2.50 m
Spannweite 5.00 m
Form Box + 2 Pan
Hersteller DFHZ
Phasenstatus In Orbit
Besitzer/Staat ZZB/CN

Große Konstellationen

Loading constellations...